Regional Weather Roundup
Issued by NWS Newport/Morehead, NC

Current Version | Previous Version | Graphics & Text | Print | Product List | Glossary On
Versions: 1 2 3 4 5 6 7 8 9 10 11 12 13 14 15 16 17 18 19 20 21 22 23 24 25 26 27 28 29 30 31 32 33 34 35 36 37 38 39 40 41 42 43 44 45 46 47 48 49 50
000 ASUS42 KMHX 272214 RWRMHX WEATHER ROUNDUP FOR EASTERN NORTH CAROLINA NATIONAL WEATHER SERVICE NEWPORT/MOREHEAD CITY NC 600 PM EDT SAT MAY 27 2017 NOTE: "FAIR" INDICATES FEW OR NO CLOUDS BELOW 12,000 FEET WITH NO SIGNIFICANT WEATHER AND/OR OBSTRUCTIONS TO VISIBILITY NCZ015>017-031-032-045>047-102-103-272300- NORTH COAST CITY SKY/WX TMP DP RH WIND PRES REMARKS EDENTON MOSUNNY 87 67 50 CALM 29.86S ELIZABETH CITY SUNNY 86 66 51 SW9 29.85S KITTY HAWK PTCLDY 83 65 55 CALM 29.85F MANTEO MOSUNNY 80 68 65 S14 29.86F $$ NCZ045>047-081-094-103-104-272300- CENTRAL COAST CITY SKY/WX TMP DP RH WIND PRES REMARKS FRISCO MOSUNNY 79 70 74 SW10 29.90S $$ NCZ095-097-098-100-101-272300- SOUTHERN COAST CITY SKY/WX TMP DP RH WIND PRES REMARKS BEAUFORT MOSUNNY 79 73 82 SW17G24 29.90S CEDAR ISLAND NOT AVBL JACKSONVILLE NOT AVBL PINEY ISLAND PTCLDY N/A N/A N/A S14 29.89S WILMINGTON SUNNY 85 68 56 S14 29.88F $$ NCZ011>013-027>030-043-044-078>080-089-090>093-098-272300- COASTAL PLAIN CITY SKY/WX TMP DP RH WIND PRES REMARKS AHOSKIE NOT AVBL CLINTON MOSUNNY 88 67 49 W7 29.88S ELIZABETHTOWN MOSUNNY 88 65 46 W7 29.88S GOLDSBORO MOSUNNY 89 62 40 W8 29.84F GREENVILLE PTSUNNY 88 63 42 SW7 29.88F HAVELOCK MOSUNNY 82 67 60 S13G21 29.89F KENANSVILLE MOSUNNY 88 64 45 W9 29.85F KINSTON PTSUNNY 88 63 42 CALM 29.86F NEW BERN MOSUNNY 85 70 60 S12 29.88S RICHLANDS MOSUNNY 88 68 51 SW6 29.87F ROCKY MOUNT SUNNY 86 66 51 S9 29.84F WASHINGTON CLOUDY 87 64 46 SW8 29.86F WHITEVILLE MOSUNNY 88 67 49 SW5 29.87F $$ AMZ130-135-150-152-154-156-158-170-250-252-270-ANZ085-086-088-633-658-670-272300- MARINE OBSERVATIONS STATION/POSITION TIME TEMP WIND PRES WAVE SWELL AIR SEA DIR/SP/G HT/PER HT/PER (UTC) (F) (DEG/KT/KT) (MB) (FT/S) (FT/S) CHESAPEAKE LIGHT NOT AVBL 64 E VA BEACH 2150 69 67 170/ 4/ 4 1012.1 3/ 7 3/ 7 DUCK 2142 80 64 130/ 8/ 8 1010.5 2 E DUCK 2200 67 N/A 2/ 7 OREGON INLET 2142 77 76 190/ 18/ 20 1011.3 13E OREGON INLT 2148 68 N/A 3/ 7 2/ 7 HATTERAS CG 2142 77 74 210/ 11/ 16 1012.1 DIAMOND BUOY 2150 78 77 220/ 17/ 21 1012.3 3/ 6 2/ 8 CAPE LOOKOUT 2200 77 210/ 13/ 17 1012.2 BEAUFORT LAB 2142 77 74 220/ 9/ 15 1011.7 30 SE NEW RVR IN 2108 77 78 220/ 16/ 21 1013.2 30 SE NEW RVR IN 2143 78 N/A 4/ 5 27 SE WRIGHTSVLE 2108 76 76 220/ 16/ 23 1013.0 5 SE WRIGHTSVLE 2108 76 75 200/ 10/ 16 1012.8 225 S CAPE HAT 2150 77 78 240/ 12/ 14 1016.3 3/ 7 2/ 7 41 SE CHARLESTON 2150 77 75 210/ 16/ 17 1014.0 3/ 5 2/ 7 $$

USA.gov is the U.S. government's official web portal to all federal, state and local government web resources and services.